Location: Jackson Park
(37.2862°N, 79.9123°W)
Time: 23:50:20
(UTC+00:00)

Tiros 1 despin weight - Visible Passes

Search period start: 11 May 2026 00:00
Search period end: 21 May 2026 00:00
Orbit: 555 x 591 km, 48.2° (Epoch: 11 May)

Date Brightness Start Highest point End Pass type
(mag) Time Alt. Az. Time Alt. Az. Time Alt. Az.
14 May ? 08:45:41 10° SSE 08:47:47 13° SE 08:49:52 10° E visible
15 May ? 08:46:41 13° S 08:49:24 22° SE 08:52:41 10° E visible
16 May ? 08:48:31 18° SSW 08:51:04 35° SE 08:54:56 10° ENE visible
17 May ? 08:50:15 22° SSW 08:52:47 56° SE 08:56:56 10° ENE visible
18 May ? 07:15:49 12° ESE 07:15:49 12° ESE 07:16:38 10° E visible
18 May ? 08:51:55 23° SW 08:54:32 88° SSE 08:58:48 10° NE visible
19 May ? 07:17:24 19° ESE 07:17:24 19° ESE 07:19:25 10° E visible
19 May ? 08:53:31 20° WSW 08:56:21 62° NNW 09:00:34 10° NE visible
20 May ? 07:18:56 29° ESE 07:18:56 29° ESE 07:21:39 10° ENE visible
20 May ? 08:55:02 15° W 08:58:14 43° NNW 09:02:17 10° NE visible
